Regional Weather Roundup
Issued by NWS

Home | Current Version | Previous Version | Graphics & Text | Print | Product List | Glossary On
Versions: 1 2 3 4 5 6 7 8 9 10 11 12 13 14 15 16 17 18 19 20 21 22 23 24 25 26 27 28 29 30 31 32 33 34 35 36 37 38 39 40 41 42 43 44 45 46 47 48 49 50
616
ASUS44 KJAN 282010
RWRMS

MISSISSIPPI HOURLY WEATHER ROUNDUP
NATIONAL WEATHER SERVICE JACKSON MS
300 PM CDT THU AUG 28 2014

NOTE: "FAIR: INDICATES FEW OR NO CLOUDS BELOW 12,000 FEET WITH NO
SIGNIFICANT WEATHER AND/OR OBSTRUCTIONS TO VISIBILITY.

MSZ001>002-007>008-010>013-018>021-025>028-034>036-282100-
NORTHWEST MISSISSIPPI

CITY           SKY/WX    TMP DP  RH WIND       PRES   REMARKS
CLARKSDALE     FAIR      91  64  40 CALM      29.98F HX  93
CLEVELAND      FAIR      89  67  47 NW5       29.96F HX  92
GREENWOOD      MOSUNNY   92  62  36 SW3       29.97F HX  92
GREENVILLE     MOSUNNY   93  62  35 N5        29.95F HX  93
GRENADA        MOCLDY    90  61  37 NW3       29.97F
OLIVE BRANCH   PTSUNNY   91  66  43 SW6       29.98F HX  94
OXFORD         FAIR      90  64  43 CALM      30.00F HX  91
TUNICA         CLEAR     91  59  33 SE7       29.98F HX  90
$$

MSZ003>006-009-014>017-022>024-029>033-037>039-282100-
NORTHEAST MISSISSIPPI

CITY           SKY/WX    TMP DP  RH WIND       PRES   REMARKS
BELMONT        FAIR      90  65  43 S5        29.99F HX  92
COLUMBUS AFB   SUNNY     90  58  34 N2        29.97F
CORINTH        FAIR      91  64  40 E7        29.97F HX  93
GOLDN TRIANGLE MOSUNNY   93  59  31 SE7       29.98F HX  92
STARKVILLE     FAIR      93  55  27 SE7       29.97F HX  91
TUPELO         MOSUNNY   94  60  32 SE7       29.97F HX  94
$$

MSZ040-058-282100-
CENTRAL MISSISSIPPI

CITY           SKY/WX    TMP DP  RH WIND       PRES   REMARKS
JACKSON INTL   MOSUNNY   93  60  33 SE5       29.97F HX  93
JACKSON HAWKNS PTSUNNY   93  62  35 CALM      29.97F HX  93
MERIDIAN KEY   PTSUNNY   93  55  27 MISG      29.96F HX  91
MERIDIAN NAS   MOSUNNY   93  57  29 VRB5      29.97F HX  91
RAYMOND        FAIR      90  84  84 SE5       29.97F HX 115
VICKSBURG      PTSUNNY   87  70  56 N6        29.95F HX  92
$$

MSZ059>079-282100-
SOUTH MISSISSIPPI

CITY           SKY/WX    TMP DP  RH WIND       PRES   REMARKS
BROOKHAVEN     FAIR      88  70  55 SE3       30.00S HX  92
COLUMBIA       MOCLDY    91  68  46 CALM      29.95F HX  95
HATTIESBURG    CLOUDY    92  64  39 NE3       29.97F HX  93
MCCOMB         PTSUNNY   91  67  44 VRB5      29.98F HX  94
NATCHEZ        PTSUNNY   91  73  55 S9G16     29.97F HX 100
PINE BELT      MOSUNNY   91  66  43 CALM      29.99F HX  94
$$

MSZ080>082-282100-
COASTAL MISSISSIPPI

CITY           SKY/WX    TMP DP  RH WIND       PRES   REMARKS
BAY ST LOUIS   MOSUNNY  N/A N/A N/A SE7       29.96F
BILOXI         PTSUNNY   90  72  54 S6        29.97F HX  97
PASCAGOULA     CLOUDY    83  76  79 CALM      29.97F HX  91
GULFPORT       MOSUNNY   88  71  57 SE8       29.96F HX  94
$$



USA.gov is the U.S. government's official web portal to all federal, state and local government web resources and services.